Change the Weather History Date:

Sunday, September 8, 2013

  Actual Average (KSBY) Record (KSBY)
Temperature  
Mean Temperature 75 °F 71 °F  
Max Temperature 87 °F 81 °F 96 °F (1939)
Min Temperature 66 °F 61 °F 46 °F (1984)
Degree Days  
Heating Degree Days 0 0  
Month to date heating degree days 0  
Since 1 July heating degree days 2  
Cooling Degree Days 10 6  
Month to date cooling degree days 57  
Year to date cooling degree days 1040  
Growing Degree Days 25 (Base 50)    
Moisture  
Dew Point 63 °F    
Average Humidity 71    
Maximum Humidity 93    
Minimum Humidity 46    
Precipitation  
Precipitation 0.00 in 0.13 in 2.70 in (1934)
Month to date precipitation 1.00  
Year to date precipitation 32.07  
Snow  
Snow 0.00 in 0.00 in 0.00 in (2002)
Month to date snowfall 0.0  
Since 1 July snowfall 0.0  
Snow Depth -    
Sea Level Pressure  
Sea Level Pressure 29.92 in    
Wind  
Wind Speed 6 mph (WNW)    
Max Wind Speed 9 mph    
Max Gust Speed -    
Visibility 10 miles    
Events Rain    
T = Trace of Precipitation, MM = Missing Value Source: NWS Daily Summary

Daily Weather History Graph

Daily Weather History Graph

Search for Another Location

Airport or City:

Trip Planner

Search our weather history database for the weather conditions in past years. The results will help you decide how hot, cold, wet, or windy it might be!

Date:

Astronomy

Sep. 08, 2013 Rise Set
Actual Time 6:36 AM EDT 7:19 PM EDT
Civil Twilight 6:09 AM EDT 7:45 PM EDT
Nautical Twilight 5:37 AM EDT 8:17 PM EDT
Astronomical Twilight 5:05 AM EDT 8:49 PM EDT
Moon 9:47 AM EDT (9/8) 8:56 PM EDT (9/8)
Length of Visible Light 13h 36m
Length of Day
12h 42m
Waxing Crescent, 11% of the Moon is Illuminated
Sep 8
Waxing Crescent
Sep 12
First Quarter
Sep 19
Full
Sep 26
Last Quarter
Oct 4
New

Hourly Weather History & Observations

Time (EDT) Temp. Heat Index Dew Point Humidity Pressure Visibility Wind Dir Wind Speed Gust Speed Precip Events Conditions
12:53 AM 66.0 °F - 61.0 °F 84% 29.95 in 10.0 mi WSW 4.6 mph - N/A   Clear
1:53 AM 66.0 °F - 61.0 °F 84% 29.95 in 10.0 mi West 4.6 mph - N/A   Clear
2:53 AM 66.9 °F - 61.0 °F 81% 29.94 in 10.0 mi WSW 6.9 mph - N/A   Clear
3:53 AM 66.9 °F - 61.0 °F 81% 29.92 in 10.0 mi WSW 8.1 mph - N/A   Clear
4:53 AM 66.0 °F - 61.0 °F 84% 29.92 in 10.0 mi WSW 8.1 mph - N/A   Clear
5:53 AM 66.9 °F - 61.0 °F 81% 29.91 in 10.0 mi WSW 8.1 mph - N/A   Clear
6:53 AM 66.9 °F - 62.1 °F 84% 29.92 in 10.0 mi West 4.6 mph - 0.00 in Rain Light Rain
7:53 AM 66.9 °F - 63.0 °F 87% 29.91 in 10.0 mi WSW 6.9 mph - 0.00 in   Partly Cloudy
8:53 AM 70.0 °F - 64.0 °F 81% 29.91 in 10.0 mi West 6.9 mph - N/A   Clear
9:53 AM 75.9 °F - 64.9 °F 69% 29.90 in 10.0 mi West 6.9 mph - N/A   Clear
10:53 AM 79.0 °F - 63.0 °F 58% 29.90 in 10.0 mi NW 5.8 mph - N/A   Clear
11:53 AM 82.0 °F 82.7 °F 61.0 °F 49% 29.89 in 10.0 mi Variable 4.6 mph - N/A   Clear
12:53 PM 84.0 °F 84.4 °F 61.0 °F 46% 29.88 in 10.0 mi WNW 6.9 mph - N/A   Clear
1:53 PM 84.9 °F 85.4 °F 62.1 °F 46% 29.88 in 10.0 mi Calm Calm - N/A   Clear
2:53 PM 82.0 °F 84.5 °F 66.9 °F 60% 29.86 in 10.0 mi SSW 5.8 mph - N/A   Scattered Clouds
3:53 PM 84.0 °F 86.3 °F 66.0 °F 55% 29.86 in 10.0 mi WSW 6.9 mph - N/A   Overcast
4:53 PM 82.9 °F 85.0 °F 66.0 °F 56% 29.86 in 10.0 mi West 3.5 mph - N/A   Overcast
5:53 PM 82.0 °F 84.5 °F 66.9 °F 60% 29.88 in 10.0 mi NW 3.5 mph - N/A   Overcast
6:53 PM 79.0 °F - 64.9 °F 62% 29.91 in 10.0 mi NNE 6.9 mph - N/A   Mostly Cloudy
7:53 PM 75.0 °F - 64.9 °F 71% 29.93 in 10.0 mi North 3.5 mph - N/A   Clear
8:53 PM 73.9 °F - 66.0 °F 76% 29.96 in 10.0 mi North 5.8 mph - N/A   Partly Cloudy
9:53 PM 68.0 °F - 64.9 °F 90% 29.99 in 7.0 mi NNW 3.5 mph - N/A   Partly Cloudy
10:53 PM 66.9 °F - 64.9 °F 93% 30.01 in 8.0 mi NNE 4.6 mph - N/A   Clear
11:53 PM 73.0 °F - 64.0 °F 73% 30.02 in 10.0 mi NE 9.2 mph - N/A   Clear